User: anonymous   Login
Location: Potawatomi Wildlife Park
(41.2308°N, 86.1050°W)
Time: 15:31:48
(UTC-05:00)
Language:

SL-16 R/B - Orbit

View from above orbital plane
View from above orbital plane
View from above satellite
View from above satellite

Ground track
Ground track

The orbit data is extracted from the following two-line orbital elements,

1 27006U 01056F   15060.92364549  .00000037  00000-0  88662-4 0  9995
2 27006 099.1909 222.2994 0014290 341.3294 183.2376 13.70944463661639
Epoch (UTC): 01 March 2015 22:10:02
Eccentricity: 0.0014290
inclination: 99.1909°
perigee height: 985 km
apogee height: 1007 km
right ascension of ascending node: 222.2994°
argument of perigee: 341.3294°
revolutions per day: 13.70944463
mean anomaly at epoch: 183.2376°
orbit number at epoch: 66163

The dashed part of the orbit path shows where the satellite is in the earth's shadow,  

DLR